Volver al catálogo

STARLINK-1265

ActivoComunicacionesVLEO
NORAD 45406·PAYLOAD·🇺🇸 United States

Lanzado Mar 18, 2020 desde Cape Canaveral Space Force Station

Loading…

Próximos Pases (próximas 24 horas)

TLE

ActualizadoSource: CelesTrak SupGP

Época: Sep 14, 2026, 20:07 UTC

1 45406C 20019AY  26257.83868056 -.00003386  00000+0 -63366-4 0  2573
2 45406  53.1506 319.3327 0004050   1.5749 278.2492 15.48101745    15

Sigue STARLINK-1265 en tiempo real con AllMySat

Download on the App Store